Regional Weather Roundup
Issued by NWS

Home | Current Version | Previous Version | Text Only | Print | Product List | Glossary On
Versions: 1 2 3 4 5 6 7 8 9 10 11 12 13 14 15 16 17 18 19 20 21 22 23 24 25 26 27
000
ASUS42 KFFC 010603
RWRGA
WEATHER ROUNDUP FOR GEORGIA
NATIONAL WEATHER SERVICE PEACHTREE CITY GA
200 AM EDT SUN MAY 01 2016

NOTE: "FAIR" INDICATES FEW OR NO CLOUDS BELOW 12,000 FEET WITH NO
SIGNIFICANT WEATHER AND/OR OBSTRUCTIONS TO VISIBILITY.

* = USE WITH CAUTION. THE STATIONS MARKED WITH AN ASTERISK MAY NOT
REPORT WEATHER SUCH AS PRECIPITATION, FOG, OR THUNDER AND ARE NOT
QUALITY CONTROLLED BY NWS.

THE REMARK "TC" DENOTES TEMPERATURE READING IN DEGREES CELSIUS.

GAZ001>058-010700-
NORTH GEORGIA

CITY           SKY/WX    TMP DP  RH WIND       PRES   REMARKS
ATLANTA        CLOUDY    69  65  86 SE6       29.99S
6HR MIN TEMP:  68; 6HR MAX TEMP:  70; 6HR PCP:  0.17;

ATHENS         CLOUDY    67  67 100 CALM      30.02R FOG
6HR MIN TEMP:  67; 6HR MAX TEMP:  73; 6HR PCP:  0.54;

CHAMBLEE       CLOUDY    67  66  97 VRB3      30.00F
6HR MIN TEMP:  67; 6HR MAX TEMP:  70; 6HR PCP:  0.04;

PEACHTREE CITY CLOUDY    66  66 100 CALM      29.99S FOG
6HR MIN TEMP:  66; 6HR MAX TEMP:  68;

ROME           MOCLDY    68  64  87 SE5       29.95F
6HR MIN TEMP:  67; 6HR MAX TEMP:  74;

WEST ATLANTA   CLOUDY    67  65  93 CALM      29.98F THUNDER
6HR MIN TEMP:  67; 6HR MAX TEMP:  71; 6HR PCP:  0.13;

GAINESVILLE    CLOUDY    65  64  97 E7        30.04F
6HR MIN TEMP:  65; 6HR MAX TEMP:  70; 6HR PCP:  0.53;

CARTERSVILLE   LGT RAIN  69  65  86 E7        29.98F
6HR MIN TEMP:  69; 6HR MAX TEMP:  77; 6HR PCP: TRACE;



CITY           SKY/WX    TMP DP  RH WIND       PRES   REMARKS
DALTON*        CLOUDY    64  64 100 CALM      29.97S
MARIETTA       CLOUDY    68  66  95 E2        29.99F
CANTON*        CLOUDY    66  64  94 CALM      30.03S
BLAIRSVILLE*     N/A    N/A N/A N/A MISG      30.04S
$$

GAZ059>098-102>109-010700-
CENTRAL GEORGIA

CITY           SKY/WX    TMP DP  RH WIND       PRES   REMARKS
AUGUSTA-BUSH   CLOUDY    72  67  84 SE6       30.03S
6HR MIN TEMP:  72; 6HR MAX TEMP:  79;

AUGUSTA-DANIEL CLOUDY    74  66  76 SE9       30.04S
6HR MIN TEMP:  74; 6HR MAX TEMP:  82;

COLUMBUS       CLOUDY    74  63  68 SW7       29.95R
6HR MIN TEMP:  74; 6HR MAX TEMP:  82;

MACON          CLOUDY    70  66  87 E6        29.97F
6HR MIN TEMP:  70; 6HR MAX TEMP:  73;

ROBINS AFB     CLOUDY    69  67  93 SE7       29.96F


CITY           SKY/WX    TMP DP  RH WIND       PRES   REMARKS
LAGRANGE*      CLOUDY    72  72  99 CALM      29.97F
SYLVANIA*      CLOUDY    73  71  93 SE3       30.06S
MILLEDGEVILLE* CLOUDY    70  68  94 CALM      29.99F
$$

GAZ099>101-110>166-010700-
SOUTH GEORGIA

CITY           SKY/WX    TMP DP  RH WIND       PRES   REMARKS
SAVANNAH       CLOUDY    75  70  84 SE8       30.04F
6HR MIN TEMP:  75; 6HR MAX TEMP:  77;

VALDOSTA       CLOUDY    69  69 100 CALM      30.00F
6HR MIN TEMP:  68; 6HR MAX TEMP:  71;

ALMA           CLOUDY    71  70  96 SE3       30.01F
6HR MIN TEMP:  71; 6HR MAX TEMP:  75; 6HR PCP:  0.01;

ST SIMONS      CLOUDY    75  72  90 S6        30.04S
6HR MIN TEMP:  74; 6HR MAX TEMP:  75;

FT STEWART     CLOUDY    73  71  93 CALM      30.02S
ALBANY         CLOUDY    75  67  76 S6        30.00F
HUNTER AFB     CLOUDY    75  74  97 SE5       30.02F
MOODY AFB      CLOUDY    70  67  90 SE3       29.99F
BRUNSWICK      MOCLDY    79  73  83 S6        30.05S


CITY           SKY/WX    TMP DP  RH WIND       PRES   REMARKS
BAINBRIDGE*    PTCLDY    72  68  88 S3        29.99F
MOULTRIE*      CLOUDY    72  66  83 SE3       30.01F
VIDALIA*       CLOUDY    73  70  88 SE5       30.03F
WAYCROSS*      CLOUDY    73  71  91 SE5       30.02S
DOUGLAS*       CLOUDY    72  70  94 CALM      30.02F
$$




USA.gov is the U.S. government's official web portal to all federal, state and local government web resources and services.